Location: Le Castellard
(44.1862°N, 6.1301°E)
Time: 10:56:00
(UTC+00:00)

STARLINK-24 - Pass Details

Date: 18 January 2020
Orbit: 528 x 529 km, 53.0° (Epoch: 16 February)

Event Time Altitude Azimuth Distance (km) Brightness Sun altitude
Rises 06:13:07 0° 227° (SW) 2,652 6.8 -9.5°
Reaches altitude 10° 06:15:20 10° 225° (SW) 1,766 6.0 -9.2°
Maximum altitude 06:19:19 69° 142° (SE) 570 3.9 -8.5°
Drops below altitude 10° 06:23:19 10° 60° (ENE) 1,777 6.8 -7.8°
Sets 06:25:32 0° 58° (ENE) 2,670 7.7 -7.4°
